Location: Chaumontel
(49.1247°N, 2.4324°E)
Time: 06:25:11
(UTC+00:00)

COSMOS 2428 - Pass Details

Date: 12 August 2024
Orbit: 842 x 857 km, 70.9° (Epoch: 08 September)

Event Time Altitude Azimuth Distance (km) Brightness Sun altitude
Exits shadow 00:05:37 14° 103° (ESE) 2,225 4.8 -26.0°
Maximum altitude 00:06:13 14° 96° (E) 2,214 4.8 -26.0°
Drops below altitude 10° 00:08:56 10° 67° (ENE) 2,482 5.4 -25.9°
Sets 00:12:39 0° 43° (NE) 3,427 6.6 -25.9°
